KLM748 TNCM-TNCA

Flight info

Callsign KLM748
Flight time 1h 24m
Altitude 36000
Route MODOR2 DANDE DCT SCAPA SCAPA2A
Aircraft B77W/H-SDE1E2E3FGHIJ2J3J4J5M1RWXY/LB1D1

Departure

Time 2026-05-06 08:32
Airport Princess Juliana International Airport (TNCM)

Arrival

Time 2026-05-06 09:56
Airport Queen Beatrix International Airport (TNCA)
Time Latitude Longitude Altitude Speed Heading
2026-05-06 08:19 18.04319 -63.11364 33 ft 0 kts 353°
2026-05-06 08:20 18.04320 -63.11364 33 ft 0 kts 353°
2026-05-06 08:25 18.04237 -63.11360 33 ft 0 kts 262°
2026-05-06 08:28 18.04231 -63.11406 33 ft 9 kts 262°
2026-05-06 08:28 18.04219 -63.11474 33 ft 10 kts 251°
2026-05-06 08:28 18.04179 -63.11535 33 ft 10 kts 230°
2026-05-06 08:29 18.04131 -63.11594 33 ft 11 kts 229°
2026-05-06 08:29 18.04079 -63.11658 33 ft 12 kts 234°
2026-05-06 08:29 18.04055 -63.11745 32 ft 13 kts 262°
2026-05-06 08:29 18.04043 -63.11842 32 ft 14 kts 262°
2026-05-06 08:30 18.04005 -63.11929 33 ft 9 kts 229°
2026-05-06 08:30 18.03963 -63.11961 32 ft 2 kts 182°
2026-05-06 08:30 18.03946 -63.11950 32 ft 3 kts 126°
2026-05-06 08:30 18.03945 -63.11930 32 ft 0 kts 79°
2026-05-06 08:31 18.03946 -63.11923 32 ft 5 kts 79°
2026-05-06 08:31 18.03978 -63.11706 32 ft 69 kts 82°
2026-05-06 08:31 18.04092 -63.10870 34 ft 159 kts 82°
2026-05-06 08:31 18.04289 -63.09557 569 ft 184 kts 82°
2026-05-06 08:32 18.04478 -63.08344 1798 ft 173 kts 87°
2026-05-06 08:32 18.04364 -63.07060 2408 ft 186 kts 108°
2026-05-06 08:32 18.03476 -63.05915 2702 ft 222 kts 149°
2026-05-06 08:32 18.01855 -63.05613 3056 ft 259 kts 187°
2026-05-06 08:33 18.00146 -63.06294 3808 ft 266 kts 199°
2026-05-06 08:33 17.98376 -63.06918 4748 ft 269 kts 192°
2026-05-06 08:33 17.96574 -63.07343 5755 ft 269 kts 187°
2026-05-06 08:33 17.94708 -63.07631 6719 ft 272 kts 184°
2026-05-06 08:34 17.92809 -63.07823 7554 ft 278 kts 183°
2026-05-06 08:34 17.88867 -63.08104 9251 ft 289 kts 182°
2026-05-06 08:34 17.86844 -63.08259 10058 ft 293 kts 188°
2026-05-06 08:35 17.84920 -63.09058 10554 ft 311 kts 216°
2026-05-06 08:35 17.83471 -63.10839 10755 ft 339 kts 244°
2026-05-06 08:35 17.82946 -63.13323 11051 ft 360 kts 270°
2026-05-06 08:35 17.82843 -63.15971 11392 ft 370 kts 257°
2026-05-06 08:36 17.81793 -63.18439 12185 ft 375 kts 238°
2026-05-06 08:36 17.80277 -63.20665 13361 ft 374 kts 233°
2026-05-06 08:36 17.78669 -63.22829 14355 ft 379 kts 233°
2026-05-06 08:36 17.77044 -63.25057 15110 ft 388 kts 234°
2026-05-06 08:37 17.75441 -63.27353 16007 ft 392 kts 236°
2026-05-06 08:37 17.73862 -63.29707 16879 ft 398 kts 237°
2026-05-06 08:37 17.72286 -63.32124 17714 ft 405 kts 238°
2026-05-06 08:37 17.70701 -63.34595 18585 ft 410 kts 238°
2026-05-06 08:38 17.69110 -63.37097 19375 ft 415 kts 238°
2026-05-06 08:38 17.67502 -63.39631 20157 ft 420 kts 238°
2026-05-06 08:38 17.65888 -63.42176 20932 ft 425 kts 238°
2026-05-06 08:38 17.64240 -63.44772 21669 ft 431 kts 239°
2026-05-06 08:39 17.62572 -63.47397 22426 ft 436 kts 239°
2026-05-06 08:39 17.60879 -63.50057 23148 ft 441 kts 239°
2026-05-06 08:39 17.59170 -63.52742 23800 ft 447 kts 239°
2026-05-06 08:39 17.57438 -63.55461 24417 ft 450 kts 238°
2026-05-06 08:40 17.55698 -63.58190 25082 ft 451 kts 238°
2026-05-06 08:40 17.53949 -63.60933 25772 ft 452 kts 238°
2026-05-06 08:40 17.52196 -63.63682 26409 ft 455 kts 238°
2026-05-06 08:40 17.50440 -63.66452 26980 ft 457 kts 239°
2026-05-06 08:41 17.48911 -63.69380 27461 ft 460 kts 245°
2026-05-06 08:41 17.47588 -63.72438 28000 ft 463 kts 248°
2026-05-06 08:41 17.46350 -63.75516 28590 ft 465 kts 248°
2026-05-06 08:41 17.45106 -63.78659 29142 ft 467 kts 248°
2026-05-06 08:42 17.43847 -63.81802 29696 ft 470 kts 248°
2026-05-06 08:42 17.42557 -63.84963 30187 ft 473 kts 247°
2026-05-06 08:42 17.41242 -63.88130 30573 ft 476 kts 246°
2026-05-06 08:42 17.39907 -63.91305 30976 ft 478 kts 246°
2026-05-06 08:43 17.38556 -63.94495 31377 ft 479 kts 246°
2026-05-06 08:43 17.37202 -63.97681 31904 ft 477 kts 245°
2026-05-06 08:43 17.35858 -64.00838 32518 ft 473 kts 245°
2026-05-06 08:43 17.34522 -64.03976 33117 ft 470 kts 245°
2026-05-06 08:44 17.33196 -64.07091 33671 ft 468 kts 245°
2026-05-06 08:44 17.31875 -64.10193 34193 ft 466 kts 245°
2026-05-06 08:44 17.30561 -64.13281 34662 ft 463 kts 245°
2026-05-06 08:44 17.29255 -64.16350 35149 ft 460 kts 245°
2026-05-06 08:45 17.27970 -64.19367 35629 ft 458 kts 245°
2026-05-06 08:45 17.26677 -64.22401 36087 ft 456 kts 245°
2026-05-06 08:45 17.25387 -64.25428 36543 ft 454 kts 245°
2026-05-06 08:45 17.24105 -64.28433 36983 ft 451 kts 245°
2026-05-06 08:46 17.22828 -64.31427 37436 ft 449 kts 245°
2026-05-06 08:46 17.21556 -64.34404 37839 ft 447 kts 245°
2026-05-06 08:46 17.20289 -64.37371 38103 ft 449 kts 245°
2026-05-06 08:47 17.17727 -64.43363 38057 ft 450 kts 245°
2026-05-06 08:47 17.15188 -64.49298 38060 ft 445 kts 245°
2026-05-06 08:48 17.12663 -64.55195 38065 ft 444 kts 245°
2026-05-06 08:48 17.10154 -64.61047 38065 ft 443 kts 245°
2026-05-06 08:49 17.07625 -64.66941 38064 ft 444 kts 245°
2026-05-06 08:49 17.05095 -64.72831 38065 ft 445 kts 245°
2026-05-06 08:50 17.02555 -64.78739 38062 ft 446 kts 245°
2026-05-06 08:50 17.00007 -64.84659 38061 ft 446 kts 245°
2026-05-06 08:51 16.97461 -64.90572 38059 ft 447 kts 245°
2026-05-06 08:51 16.94921 -64.96463 38060 ft 447 kts 245°
2026-05-06 08:52 16.92363 -65.02391 38060 ft 447 kts 245°
2026-05-06 08:52 16.89806 -65.08310 38059 ft 447 kts 245°
2026-05-06 08:53 16.87262 -65.14195 38055 ft 447 kts 245°
2026-05-06 08:53 16.84704 -65.20107 38057 ft 446 kts 245°
2026-05-06 08:54 16.82147 -65.26010 38055 ft 446 kts 245°
2026-05-06 08:54 16.79590 -65.31908 38060 ft 446 kts 245°
2026-05-06 08:55 16.77032 -65.37804 38056 ft 446 kts 245°
2026-05-06 08:55 16.74472 -65.43698 38053 ft 446 kts 245°
2026-05-06 08:56 16.71911 -65.49589 38057 ft 446 kts 245°
2026-05-06 08:56 16.69351 -65.55472 38053 ft 446 kts 245°
2026-05-06 08:57 16.66803 -65.61321 38053 ft 446 kts 246°
2026-05-06 08:57 16.64231 -65.67221 38056 ft 446 kts 246°
2026-05-06 08:58 16.62095 -65.72118 38049 ft 446 kts 246°
2026-05-06 08:58 16.59527 -65.77998 38056 ft 446 kts 246°
2026-05-06 08:59 16.56957 -65.83879 38054 ft 446 kts 246°
2026-05-06 08:59 16.54387 -65.89754 38053 ft 446 kts 246°
2026-05-06 09:00 16.51813 -65.95633 38051 ft 446 kts 246°
2026-05-06 09:00 16.49239 -66.01505 38054 ft 446 kts 246°
2026-05-06 09:01 16.46794 -66.07079 38049 ft 446 kts 246°
2026-05-06 09:01 16.44213 -66.12959 38050 ft 446 kts 246°
2026-05-06 09:02 16.41634 -66.18829 38049 ft 446 kts 246°
2026-05-06 09:02 16.39049 -66.24707 38051 ft 446 kts 246°
2026-05-06 09:03 16.36463 -66.30580 38050 ft 446 kts 246°
2026-05-06 09:03 16.33877 -66.36449 38051 ft 446 kts 246°
2026-05-06 09:04 16.31282 -66.42334 38052 ft 447 kts 246°
2026-05-06 09:04 16.28706 -66.48170 38050 ft 447 kts 246°
2026-05-06 09:05 16.26110 -66.54046 38051 ft 447 kts 246°
2026-05-06 09:05 16.23507 -66.59932 38045 ft 447 kts 246°
2026-05-06 09:06 16.20905 -66.65812 38047 ft 447 kts 246°
2026-05-06 09:06 16.18306 -66.71680 38048 ft 447 kts 246°
2026-05-06 09:07 16.15699 -66.77560 38046 ft 447 kts 246°
2026-05-06 09:07 16.13091 -66.83439 38046 ft 447 kts 246°
2026-05-06 09:08 16.10484 -66.89309 38045 ft 447 kts 246°
2026-05-06 09:08 16.07885 -66.95154 38043 ft 448 kts 246°
2026-05-06 09:09 16.05445 -67.00640 38048 ft 448 kts 246°
2026-05-06 09:09 16.02829 -67.06514 38044 ft 448 kts 246°
2026-05-06 09:10 16.00205 -67.12403 38041 ft 448 kts 246°
2026-05-06 09:10 15.97582 -67.18285 38040 ft 448 kts 246°
2026-05-06 09:11 15.94957 -67.24165 38046 ft 448 kts 246°
2026-05-06 09:11 15.92332 -67.30039 38042 ft 448 kts 246°
2026-05-06 09:12 15.89703 -67.35919 38042 ft 449 kts 246°
2026-05-06 09:12 15.87091 -67.41759 38038 ft 449 kts 246°
2026-05-06 09:13 15.84461 -67.47627 38042 ft 448 kts 245°
2026-05-06 09:13 15.82877 -67.50424 38029 ft 450 kts 233°
2026-05-06 09:13 15.80682 -67.52740 38049 ft 451 kts 224°
2026-05-06 09:14 15.75916 -67.57006 38044 ft 453 kts 223°
2026-05-06 09:14 15.71139 -67.61312 38039 ft 455 kts 224°
2026-05-06 09:15 15.66408 -67.65633 38034 ft 456 kts 224°
2026-05-06 09:15 15.61643 -67.70012 38033 ft 458 kts 224°
2026-05-06 09:16 15.56875 -67.74396 38034 ft 458 kts 224°
2026-05-06 09:16 15.52104 -67.78778 38029 ft 458 kts 224°
2026-05-06 09:17 15.47327 -67.83162 38032 ft 458 kts 224°
2026-05-06 09:17 15.42553 -67.87539 38030 ft 458 kts 224°
2026-05-06 09:18 15.37808 -67.91888 38033 ft 458 kts 224°
2026-05-06 09:18 15.33038 -67.96257 38032 ft 457 kts 224°
2026-05-06 09:19 15.28271 -68.00620 38029 ft 457 kts 224°
2026-05-06 09:19 15.23501 -68.04983 38029 ft 457 kts 224°
2026-05-06 09:20 15.18730 -68.09345 38031 ft 458 kts 224°
2026-05-06 09:20 15.13964 -68.13699 38029 ft 458 kts 224°
2026-05-06 09:21 15.09184 -68.18063 38025 ft 458 kts 224°
2026-05-06 09:21 15.04399 -68.22429 38025 ft 458 kts 224°
2026-05-06 09:22 14.99637 -68.26770 38024 ft 459 kts 224°
2026-05-06 09:22 14.94846 -68.31137 38024 ft 459 kts 224°
2026-05-06 09:23 14.90048 -68.35506 38021 ft 459 kts 224°
2026-05-06 09:23 14.85251 -68.39872 38022 ft 460 kts 224°
2026-05-06 09:24 14.80447 -68.44241 38019 ft 460 kts 224°
2026-05-06 09:24 14.75640 -68.48611 38008 ft 460 kts 224°
2026-05-06 09:25 14.70830 -68.52981 38027 ft 460 kts 224°
2026-05-06 09:25 14.66050 -68.57320 38033 ft 460 kts 224°
2026-05-06 09:26 14.61249 -68.61676 38017 ft 460 kts 224°
2026-05-06 09:26 14.56436 -68.66041 38019 ft 461 kts 224°
2026-05-06 09:26 14.54022 -68.68230 37662 ft 466 kts 224°
2026-05-06 09:27 14.51566 -68.70457 37052 ft 468 kts 224°
2026-05-06 09:27 14.49136 -68.72657 36558 ft 463 kts 223°
2026-05-06 09:27 14.46729 -68.74835 36067 ft 458 kts 223°
2026-05-06 09:27 14.44348 -68.76989 35580 ft 453 kts 223°
2026-05-06 09:28 14.41988 -68.79125 35077 ft 450 kts 223°
2026-05-06 09:28 14.39641 -68.81247 34575 ft 447 kts 223°
2026-05-06 09:28 14.37307 -68.83359 34078 ft 445 kts 223°
2026-05-06 09:28 14.35000 -68.85446 33520 ft 442 kts 223°
2026-05-06 09:29 14.32694 -68.87530 33009 ft 439 kts 223°
2026-05-06 09:29 14.30437 -68.89568 32520 ft 435 kts 223°
2026-05-06 09:29 14.28168 -68.91618 32035 ft 432 kts 223°
2026-05-06 09:29 14.25918 -68.93651 31567 ft 429 kts 223°
2026-05-06 09:30 14.23680 -68.95671 31078 ft 427 kts 223°
2026-05-06 09:30 14.21432 -68.97702 30463 ft 433 kts 224°
2026-05-06 09:30 14.19153 -68.99761 30081 ft 437 kts 224°
2026-05-06 09:30 14.16871 -69.01820 29795 ft 437 kts 224°
2026-05-06 09:31 14.14586 -69.03881 29582 ft 435 kts 224°
2026-05-06 09:31 14.12311 -69.05932 29376 ft 433 kts 224°
2026-05-06 09:31 14.10046 -69.07973 29166 ft 431 kts 223°
2026-05-06 09:31 14.07804 -69.09992 28966 ft 429 kts 224°
2026-05-06 09:32 14.05549 -69.12023 28671 ft 430 kts 224°
2026-05-06 09:32 14.03305 -69.14047 28413 ft 427 kts 224°
2026-05-06 09:32 14.01101 -69.16031 27835 ft 427 kts 224°
2026-05-06 09:32 13.98862 -69.18047 27161 ft 428 kts 224°
2026-05-06 09:33 13.96611 -69.20073 26516 ft 430 kts 224°
2026-05-06 09:33 13.94363 -69.22097 25981 ft 429 kts 224°
2026-05-06 09:33 13.92124 -69.24110 25534 ft 425 kts 224°
2026-05-06 09:33 13.89909 -69.26102 25208 ft 419 kts 224°
2026-05-06 09:34 13.87718 -69.28072 24687 ft 419 kts 223°
2026-05-06 09:34 13.85523 -69.30045 24268 ft 417 kts 223°
2026-05-06 09:34 13.83347 -69.32001 23813 ft 415 kts 223°
2026-05-06 09:34 13.81153 -69.33972 23186 ft 418 kts 223°
2026-05-06 09:35 13.78975 -69.35928 22818 ft 412 kts 223°
2026-05-06 09:35 13.76859 -69.37827 22482 ft 406 kts 223°
2026-05-06 09:35 13.74741 -69.39729 21924 ft 407 kts 223°
2026-05-06 09:35 13.72627 -69.41626 21546 ft 397 kts 223°
2026-05-06 09:36 13.70566 -69.43474 20721 ft 392 kts 223°
2026-05-06 09:36 13.68509 -69.45320 19799 ft 390 kts 222°
2026-05-06 09:36 13.66503 -69.47120 19218 ft 374 kts 221°
2026-05-06 09:36 13.64556 -69.48866 18262 ft 372 kts 221°
2026-05-06 09:37 13.62607 -69.50614 17839 ft 371 kts 221°
2026-05-06 09:37 13.60656 -69.52363 17369 ft 372 kts 220°
2026-05-06 09:37 13.58723 -69.54096 16912 ft 374 kts 220°
2026-05-06 09:37 13.56753 -69.55860 16443 ft 377 kts 220°
2026-05-06 09:38 13.54770 -69.57636 15978 ft 379 kts 219°
2026-05-06 09:38 13.52781 -69.59418 15496 ft 378 kts 219°
2026-05-06 09:38 13.51205 -69.60829 15124 ft 377 kts 219°
2026-05-06 09:38 13.49455 -69.62395 14707 ft 376 kts 218°
2026-05-06 09:39 13.47701 -69.63966 14272 ft 375 kts 218°
2026-05-06 09:39 13.45737 -69.65722 13806 ft 374 kts 218°
2026-05-06 09:39 13.43781 -69.67473 13281 ft 372 kts 218°
2026-05-06 09:39 13.41830 -69.69215 12794 ft 370 kts 217°
2026-05-06 09:40 13.39782 -69.70792 12372 ft 366 kts 209°
2026-05-06 09:40 13.37643 -69.72174 12127 ft 361 kts 208°
2026-05-06 09:40 13.33423 -69.74881 11629 ft 354 kts 208°
2026-05-06 09:41 13.31341 -69.76223 11315 ft 354 kts 208°
2026-05-06 09:41 13.29258 -69.77573 11004 ft 353 kts 208°
2026-05-06 09:41 13.27214 -69.78900 10724 ft 352 kts 208°
2026-05-06 09:41 13.25141 -69.80248 10422 ft 351 kts 208°
2026-05-06 09:42 13.23091 -69.81584 10144 ft 349 kts 208°
2026-05-06 09:42 13.21050 -69.82915 9869 ft 348 kts 208°
2026-05-06 09:42 13.19027 -69.84234 9792 ft 339 kts 208°
2026-05-06 09:42 13.17066 -69.85514 9714 ft 328 kts 208°
2026-05-06 09:43 13.15172 -69.86752 9632 ft 316 kts 208°
2026-05-06 09:43 13.13350 -69.87941 9537 ft 305 kts 208°
2026-05-06 09:43 13.11587 -69.89090 9430 ft 295 kts 208°
2026-05-06 09:43 13.09878 -69.90203 9258 ft 288 kts 207°
2026-05-06 09:44 13.08523 -69.91085 9074 ft 285 kts 208°
2026-05-06 09:44 13.06963 -69.92101 8807 ft 283 kts 207°
2026-05-06 09:44 13.05307 -69.93177 8489 ft 281 kts 207°
2026-05-06 09:44 13.03658 -69.94248 8209 ft 279 kts 208°
2026-05-06 09:45 13.02573 -69.94955 8038 ft 278 kts 207°
2026-05-06 09:45 13.00563 -69.96262 7680 ft 276 kts 207°
2026-05-06 09:45 12.98939 -69.97316 7220 ft 280 kts 207°
2026-05-06 09:45 12.97250 -69.98410 6557 ft 294 kts 208°
2026-05-06 09:46 12.95471 -69.99562 5572 ft 314 kts 208°
2026-05-06 09:46 12.93558 -70.00800 4634 ft 333 kts 208°
2026-05-06 09:46 12.91592 -70.02079 4074 ft 335 kts 208°
2026-05-06 09:46 12.90291 -70.02929 3717 ft 335 kts 208°
2026-05-06 09:47 12.88329 -70.04208 3208 ft 335 kts 208°
2026-05-06 09:47 12.86367 -70.05486 2745 ft 333 kts 207°
2026-05-06 09:47 12.84396 -70.06768 2520 ft 341 kts 207°
2026-05-06 09:47 12.82403 -70.08063 2505 ft 337 kts 207°
2026-05-06 09:48 12.80424 -70.09350 2505 ft 334 kts 207°
2026-05-06 09:48 12.78460 -70.10626 2499 ft 335 kts 207°
2026-05-06 09:48 12.76493 -70.11903 2494 ft 335 kts 207°
2026-05-06 09:48 12.74517 -70.13185 2508 ft 336 kts 208°
2026-05-06 09:49 12.72538 -70.14470 2510 ft 337 kts 207°
2026-05-06 09:49 12.70554 -70.15759 2513 ft 338 kts 207°
2026-05-06 09:49 12.68571 -70.17046 2507 ft 335 kts 207°
2026-05-06 09:49 12.66624 -70.18310 2499 ft 330 kts 207°
2026-05-06 09:50 12.64665 -70.19522 2477 ft 319 kts 200°
2026-05-06 09:50 12.62637 -70.20162 2464 ft 294 kts 185°
2026-05-06 09:50 12.60693 -70.20565 2453 ft 275 kts 186°
2026-05-06 09:50 12.58924 -70.20984 2432 ft 247 kts 186°
2026-05-06 09:51 12.57342 -70.21338 2373 ft 217 kts 176°
2026-05-06 09:51 12.56017 -70.21049 2377 ft 182 kts 140°
2026-05-06 09:51 12.55251 -70.20076 2404 ft 175 kts 117°
2026-05-06 09:51 12.54675 -70.18969 2348 ft 177 kts 113°
2026-05-06 09:52 12.54218 -70.17807 2276 ft 174 kts 110°
2026-05-06 09:52 12.53808 -70.16665 2215 ft 173 kts 108°
2026-05-06 09:52 12.53475 -70.15518 2125 ft 163 kts 104°
2026-05-06 09:52 12.53198 -70.14405 2084 ft 160 kts 104°
2026-05-06 09:53 12.52933 -70.13298 2045 ft 160 kts 104°
2026-05-06 09:53 12.52671 -70.12190 1853 ft 155 kts 104°
2026-05-06 09:53 12.52428 -70.11168 1669 ft 142 kts 104°
2026-05-06 09:53 12.52205 -70.10228 1465 ft 129 kts 103°
2026-05-06 09:54 12.52003 -70.09374 1335 ft 122 kts 103°
2026-05-06 09:54 12.51801 -70.08519 1162 ft 124 kts 104°
2026-05-06 09:54 12.51593 -70.07649 1016 ft 126 kts 103°
2026-05-06 09:54 12.51391 -70.06788 845 ft 121 kts 105°
2026-05-06 09:55 12.51196 -70.05974 685 ft 116 kts 103°
2026-05-06 09:55 12.51005 -70.05166 542 ft 118 kts 105°
2026-05-06 09:55 12.50794 -70.04276 385 ft 140 kts 104°
2026-05-06 09:55 12.50568 -70.03326 168 ft 132 kts 103°
2026-05-06 09:56 12.50353 -70.02418 51 ft 129 kts 104°
2026-05-06 09:56 12.50164 -70.01625 49 ft 96 kts 103°
2026-05-06 09:56 12.50041 -70.01114 49 ft 52 kts 103°
2026-05-06 09:56 12.49994 -70.00907 53 ft 8 kts 103°
2026-05-06 09:57 12.49983 -70.00858 55 ft 17 kts 103°
2026-05-06 09:57 12.49962 -70.00752 56 ft 12 kts 85°
2026-05-06 09:57 12.50027 -70.00705 53 ft 15 kts 13°
2026-05-06 09:57 12.50127 -70.00701 48 ft 3 kts 313°
2026-05-06 09:58 12.50147 -70.00722 49 ft 5 kts 317°
2026-05-06 09:58 12.50183 -70.00726 47 ft 6 kts 22°
2026-05-06 09:58 12.50228 -70.00711 47 ft 6 kts 14°
2026-05-06 09:58 12.50245 -70.00707 45 ft 1 kts 14°
2026-05-06 09:59 12.50246 -70.00706 45 ft 0 kts 14°